Preview of NWS' New Version of Forecast
This preview is not operational and should not be used for support decisions.

Regional Weather Roundup (RWR)

Issued by Gray - Portland, ME (GYX)

                            
058 
ASUS41 KGYX 261705
RWRGYX
WEATHER ROUNDUP FOR MAINE AND NEW HAMPSHIRE
NATIONAL WEATHER SERVICE GRAY ME
100 PM EDT TUE MAR 26 2019

MEZ002-005-006-010-012-015-018-020-021-024-026-027-029-261800-
MAINE
  
CITY           SKY/WX    TMP DP  RH WIND       PRES   REMARKS
PORTLAND       FAIR      37   4  25 NW12G22   30.26S                  
SANFORD        FAIR      37  -2  19 NW9G22    30.25S                  
BAR HARBOR     FAIR      31   5  33 NW12      30.22S                  
WISCASSET      FAIR      34   1  24 NW9       30.26S                  
ROCKLAND       FAIR      33   3  28 NW14      30.23S                  
FRYEBURG       FAIR      33   0  24 VRB5      30.24S                  
LEWISTONAUBURN FAIR      31   3  30 NW12      30.25S                  
AUGUSTA        NOT AVBL                                               
WATERVILLE     FAIR      31   6  35 W10       30.20F                  
BANGOR         FAIR      31   3  30 N9        30.22F                  
GREENVILLE       N/A     22  -3  33 NW10G21   30.10F WCI  11          
MILLINOCKET    FAIR      27   2  34 VRB6      30.19F                  
HOULTON        FAIR      24  -1  33 W9        30.13F                  
PRESQUE ISLE   FAIR      23   0  36 W8        30.13                   
FRENCHVILLE    FAIR      20  -1  40 W15G26    30.07F WCI   6          
CARIBOU        FAIR      23  -1  35 W7        30.11F                  
$$

NHZ002-005-008-009-011-012-014-261800-
NEW HAMPSHIRE
  
CITY           SKY/WX    TMP DP  RH WIND       PRES   REMARKS
PORTSMOUTH     SUNNY     39  -4  15 N9G17     30.24S                  
ROCHESTER      FAIR      38   3  23 NW9       30.24F                  
NASHUA         FAIR      39  -1  18 N10G20    30.27F                  
MANCHESTER     FAIR      38  -3  17 NW15      30.25F                  
CONCORD        FAIR      36   5  27 NW15      30.27S                  
PLYMOUTH       FAIR      32   2  27 NW9G18    30.27F                  
BERLIN         FAIR      29   2  31 W8G17     30.21S                  
WHITEFIELD     FAIR      30  -2  25 NW8       30.24S                  
JAFFREY        FAIR      35   1  23 NW8G16    30.23S                  
KEENE          FAIR      36   2  23 NW13      30.27F                  
LEBANON        FAIR      35   5  28 NW13      30.28F                  
MT WASHINGTON  SUNNY     -2  -6  84 NW47G56     N/A  WCI -34          
$$

VTZ005-007-008-261800-
VERMONT
  
CITY           SKY/WX    TMP DP  RH WIND       PRES   REMARKS
ST JOHNSBURY     N/A     29   0  28 MISG      30.26F                  
MONTPELIER     FAIR      26   4  38 NW12      30.30F WCI  16          
BURLINGTON     FAIR      29   4  34 NW6       30.34F                  
$$

MAZ007-012-024-CTZ003-RIZ002-NYZ038-NYZ072-261800-
SOUTHERN NEW ENGLAND AND NY
  
CITY           SKY/WX    TMP DP  RH WIND       PRES   REMARKS
BOSTON         FAIR      43   0  16 VRB6G16   30.26F                  
WORCESTER      FAIR      36   2  23 NW9G20    30.22S                  
NANTUCKET      FAIR      41  14  33 NE20G26   30.23R                  
PROVIDENCE     FAIR      42   3  19 N14G23    30.26S                  
HARTFORD       FAIR      43   0  16 N8G21     30.27F                  
ALBANY         FAIR      41   0  18 NW15      30.34S                  
NEW YORK CITY  FAIR      43   4  19 NW15G22   30.29S                  
$$

ANZ081-ANZ082-ANZ150-NHZ014-MEZ023>029-261800-
COASTAL MARINE OBSERVATIONS
  
STATION/POSITION TIME  TEMP    WIND        PRES    WAVE
                       AIR SEA DIR/SP/G            HT/PER
                 (UTC) (F)     (DEG/KT/KT) (MB)    (FT/S)
MOUNT DESERT ROC 1600   29     300/ 17/ 21 1023.0F
MATINICUS ROCK   1600   30     310/ 16/ 19 1023.2F
ISLE OF SHOALS   1600   33      30/  6/  7 1024.5S
JEFFREYS LEDGE   1638      39                N/A     4/ 5
CASHES LEDGE BUO 1650   34 39              1024.3R   3/ 5
$$

.............KEY..............
   WCI - WIND CHILL
   TC  - TEMPERATURE IN CELSIUS
   VSB - VISIBILITY IN MILES
   HX  - HEAT INDEX
   FAIR- INDICATES FEW OR NO CLOUDS BELOW 12,000 FT, WITH NO 
         SIGNIFICANT WEATHER AND/OR OBSTRUCTIONS TO VISIBILITY.